GEFSSGP_prec_meanprecacc_276.txt.gz
Total_Precipitation_Accumulation
0.21 0.26 0.33 0.36 0.29 0.18 0.05 0.01 0.00 0.01 0.01 0.02 0.01 0.01 0.01 0.01 0.01 0.03 0.03 0.02 0.04 0.07 0.12 0.25 0.35 0.42 0.47 0.50 0.50 0.50 0.52 0.54 0.59 0.61 0.65 0.68 0.69 0.71 0.77 0.79 0.80 0.81 0.88 0.91 0.94 0.91 0.87 0.83 0.77
0.22 0.32 0.41 0.45 0.27 0.12 0.03 0.00 0.00 0.01 0.01 0.02 0.02 0.01 0.01 0.02 0.01 0.02 0.03 0.03 0.03 0.05 0.10 0.20 0.34 0.43 0.49 0.51 0.51 0.51 0.53 0.55 0.60 0.64 0.68 0.71 0.72 0.73 0.77 0.79 0.81 0.81 0.84 0.94 0.94 0.90 0.89 0.86 0.83
0.34 0.45 0.48 0.47 0.28 0.08 0.02 0.00 0.00 0.01 0.02 0.02 0.01 0.01 0.01 0.01 0.01 0.02 0.03 0.03 0.04 0.06 0.10 0.21 0.36 0.46 0.55 0.57 0.55 0.55 0.59 0.62 0.66 0.69 0.74 0.78 0.80 0.80 0.81 0.78 0.76 0.75 0.74 0.79 0.81 0.85 0.90 0.90 0.85
0.49 0.63 0.59 0.44 0.20 0.06 0.02 0.01 0.00 0.01 0.02 0.01 0.00 0.01 0.02 0.02 0.02 0.03 0.04 0.04 0.06 0.09 0.14 0.24 0.39 0.52 0.61 0.63 0.61 0.60 0.65 0.70 0.75 0.79 0.82 0.87 0.93 0.92 0.88 0.83 0.82 0.75 0.70 0.72 0.77 0.83 0.90 0.88 0.81
0.63 0.72 0.62 0.39 0.13 0.04 0.02 0.01 0.01 0.01 0.01 0.01 0.01 0.01 0.02 0.02 0.02 0.04 0.06 0.08 0.10 0.14 0.22 0.31 0.46 0.61 0.69 0.73 0.71 0.69 0.74 0.77 0.80 0.84 0.88 0.93 0.98 0.98 0.92 0.87 0.84 0.82 0.79 0.76 0.78 0.84 0.91 0.86 0.79
0.75 0.76 0.54 0.27 0.08 0.02 0.02 0.01 0.01 0.01 0.01 0.01 0.01 0.02 0.03 0.04 0.04 0.06 0.07 0.09 0.11 0.17 0.26 0.39 0.61 0.70 0.75 0.84 0.85 0.82 0.86 0.89 0.89 0.92 0.98 1.02 1.03 1.03 1.02 0.94 0.87 0.87 0.86 0.82 0.82 0.86 0.90 0.82 0.74
0.79 0.68 0.40 0.18 0.07 0.03 0.03 0.02 0.02 0.02 0.02 0.01 0.01 0.03 0.04 0.07 0.08 0.09 0.11 0.14 0.20 0.28 0.38 0.47 0.66 0.79 0.88 0.98 1.02 0.99 1.00 1.02 1.00 1.02 1.06 1.11 1.10 1.09 1.07 1.03 0.94 0.92 0.90 0.94 0.90 0.85 0.82 0.77 0.70
0.80 0.74 0.40 0.20 0.11 0.07 0.05 0.04 0.03 0.03 0.03 0.03 0.03 0.04 0.05 0.08 0.09 0.13 0.17 0.25 0.33 0.40 0.48 0.58 0.70 0.83 0.94 1.07 1.17 1.21 1.21 1.20 1.22 1.21 1.12 1.11 1.20 1.23 1.20 1.10 1.04 1.01 0.98 0.98 0.99 0.91 0.81 0.74 0.68
0.89 0.91 0.46 0.20 0.14 0.10 0.08 0.08 0.05 0.04 0.05 0.05 0.05 0.04 0.06 0.09 0.13 0.20 0.29 0.39 0.48 0.55 0.62 0.74 0.82 0.89 0.99 1.09 1.19 1.39 1.50 1.49 1.44 1.41 1.29 1.29 1.30 1.27 1.22 1.12 1.07 1.01 1.02 0.98 1.02 1.03 0.94 0.84 0.76
0.99 0.77 0.37 0.18 0.15 0.13 0.11 0.11 0.08 0.09 0.10 0.08 0.07 0.07 0.10 0.15 0.21 0.26 0.30 0.38 0.49 0.56 0.68 0.82 0.97 1.03 1.14 1.21 1.29 1.44 1.56 1.61 1.53 1.30 1.31 1.39 1.28 1.23 1.18 1.19 1.21 1.12 1.08 1.06 1.03 1.05 1.01 0.93 0.78
0.82 0.54 0.28 0.19 0.16 0.18 0.17 0.15 0.12 0.13 0.12 0.09 0.09 0.10 0.15 0.21 0.26 0.32 0.35 0.39 0.49 0.56 0.71 0.87 1.07 1.21 1.31 1.31 1.31 1.37 1.47 1.56 1.55 1.35 1.20 1.24 1.29 1.30 1.32 1.24 1.28 1.28 1.22 1.22 1.15 1.10 0.99 0.89 0.82
0.60 0.39 0.29 0.26 0.21 0.23 0.23 0.20 0.17 0.13 0.10 0.11 0.14 0.12 0.16 0.23 0.29 0.35 0.38 0.41 0.50 0.61 0.75 0.93 1.09 1.27 1.39 1.45 1.42 1.40 1.42 1.47 1.48 1.45 1.37 1.27 1.26 1.20 1.16 1.16 1.09 1.10 1.07 1.09 1.10 1.00 0.91 0.85 0.79
0.47 0.35 0.29 0.28 0.28 0.28 0.29 0.27 0.21 0.12 0.09 0.14 0.18 0.18 0.19 0.23 0.31 0.42 0.47 0.48 0.54 0.63 0.77 1.00 1.16 1.29 1.45 1.57 1.56 1.56 1.52 1.38 1.43 1.51 1.56 1.42 1.25 1.18 1.15 1.12 1.09 1.03 0.99 0.98 0.98 0.91 0.83 0.78 0.74
0.39 0.35 0.30 0.27 0.29 0.32 0.36 0.35 0.30 0.16 0.13 0.21 0.23 0.23 0.24 0.25 0.33 0.45 0.56 0.57 0.55 0.64 0.79 1.06 1.25 1.33 1.49 1.57 1.55 1.57 1.63 1.51 1.52 1.55 1.50 1.55 1.46 1.30 1.28 1.26 1.15 1.08 1.01 0.97 0.96 0.93 0.87 0.80 0.74
0.41 0.48 0.40 0.30 0.28 0.31 0.42 0.48 0.34 0.20 0.20 0.28 0.29 0.30 0.32 0.32 0.36 0.44 0.58 0.64 0.60 0.67 0.83 1.07 1.29 1.43 1.54 1.54 1.56 1.60 1.66 1.65 1.57 1.54 1.51 1.57 1.56 1.52 1.43 1.40 1.32 1.18 1.12 1.09 1.05 1.04 0.97 0.91 0.82
0.63 0.78 0.66 0.37 0.30 0.35 0.53 0.52 0.26 0.22 0.28 0.30 0.35 0.34 0.37 0.36 0.36 0.45 0.61 0.76 0.76 0.79 0.85 1.03 1.28 1.43 1.54 1.58 1.58 1.58 1.66 1.67 1.64 1.62 1.57 1.55 1.64 1.65 1.67 1.55 1.45 1.31 1.29 1.25 1.21 1.14 1.10 0.98 0.90
0.94 0.90 0.63 0.41 0.35 0.43 0.57 0.44 0.23 0.24 0.33 0.36 0.40 0.39 0.40 0.43 0.41 0.45 0.57 0.75 0.83 0.83 0.90 1.05 1.24 1.37 1.49 1.65 1.72 1.65 1.66 1.71 1.75 1.71 1.68 1.55 1.63 1.74 1.81 1.82 1.69 1.54 1.48 1.40 1.29 1.17 1.12 1.07 0.98
0.82 0.65 0.49 0.41 0.39 0.43 0.50 0.39 0.26 0.25 0.33 0.38 0.44 0.44 0.40 0.47 0.43 0.45 0.55 0.72 0.86 0.90 0.97 1.08 1.22 1.39 1.50 1.74 1.88 1.91 1.78 1.77 1.78 1.74 1.65 1.63 1.65 1.69 1.71 1.79 1.86 1.81 1.74 1.65 1.52 1.37 1.20 1.10 1.04
0.52 0.59 0.50 0.34 0.33 0.44 0.45 0.36 0.26 0.25 0.31 0.39 0.43 0.47 0.42 0.45 0.48 0.52 0.60 0.68 0.87 0.96 1.00 1.11 1.16 1.34 1.51 1.68 1.85 1.88 1.84 1.78 1.75 1.67 1.60 1.54 1.59 1.64 1.67 1.61 1.69 1.76 1.73 1.68 1.63 1.56 1.48 1.33 1.20
0.61 0.69 0.54 0.37 0.32 0.48 0.48 0.39 0.28 0.26 0.31 0.39 0.40 0.46 0.49 0.49 0.54 0.58 0.65 0.72 0.88 1.01 1.00 1.10 1.21 1.31 1.36 1.47 1.63 1.74 1.79 1.80 1.79 1.68 1.68 1.57 1.52 1.54 1.64 1.66 1.58 1.58 1.61 1.61 1.57 1.53 1.50 1.46 1.33
0.71 0.62 0.51 0.46 0.44 0.54 0.61 0.56 0.34 0.29 0.27 0.35 0.40 0.45 0.55 0.59 0.61 0.63 0.67 0.74 0.89 1.02 1.05 1.07 1.19 1.32 1.36 1.48 1.66 1.79 1.97 1.98 2.02 1.85 1.69 1.60 1.54 1.48 1.49 1.59 1.61 1.56 1.53 1.53 1.50 1.43 1.37 1.37 1.28
0.75 0.43 0.44 0.51 0.78 0.88 0.76 0.88 0.43 0.30 0.29 0.35 0.41 0.45 0.55 0.60 0.61 0.68 0.69 0.77 0.88 0.96 1.09 1.12 1.23 1.35 1.39 1.53 1.70 1.71 1.84 1.86 1.79 1.67 1.60 1.53 1.53 1.50 1.43 1.42 1.48 1.53 1.50 1.44 1.42 1.43 1.38 1.39 1.37
0.60 0.38 0.49 0.62 0.87 1.03 0.77 0.86 0.49 0.28 0.34 0.35 0.39 0.42 0.51 0.60 0.59 0.66 0.70 0.69 0.80 0.89 1.04 1.14 1.27 1.40 1.46 1.50 1.66 1.70 1.64 1.65 1.69 1.72 1.66 1.59 1.57 1.50 1.44 1.41 1.40 1.42 1.43 1.36 1.34 1.39 1.42 1.43 1.38
0.58 0.68 0.83 0.94 1.36 1.63 0.68 0.66 0.54 0.46 0.54 0.44 0.39 0.43 0.52 0.59 0.62 0.65 0.65 0.63 0.74 0.88 1.02 1.13 1.25 1.36 1.45 1.47 1.57 1.72 1.66 1.58 1.59 1.69 1.74 1.70 1.65 1.57 1.44 1.34 1.33 1.31 1.29 1.29 1.26 1.27 1.28 1.33 1.34
0.95 1.43 2.11 2.25 2.24 1.36 0.37 0.50 0.61 0.49 0.48 0.52 0.50 0.48 0.50 0.56 0.63 0.69 0.59 0.62 0.67 0.79 0.94 1.07 1.23 1.28 1.33 1.39 1.48 1.55 1.66 1.60 1.49 1.46 1.52 1.66 1.69 1.59 1.49 1.40 1.29 1.23 1.21 1.20 1.19 1.21 1.23 1.20 1.23
1.03 1.29 1.72 1.70 1.16 0.53 0.30 0.50 0.54 0.40 0.34 0.35 0.38 0.46 0.49 0.52 0.56 0.61 0.59 0.61 0.64 0.68 0.80 0.94 1.07 1.23 1.33 1.37 1.41 1.46 1.51 1.61 1.49 1.40 1.34 1.43 1.52 1.45 1.38 1.42 1.34 1.23 1.20 1.22 1.20 1.18 1.18 1.22 1.17
0.92 1.01 0.87 1.16 0.83 0.58 0.48 0.43 0.36 0.19 0.19 0.23 0.29 0.40 0.51 0.56 0.57 0.54 0.57 0.62 0.61 0.67 0.72 0.86 0.96 1.10 1.28 1.40 1.41 1.42 1.43 1.48 1.48 1.40 1.36 1.34 1.34 1.38 1.37 1.40 1.40 1.32 1.32 1.36 1.34 1.29 1.21 1.21 1.23
0.73 0.89 1.10 1.53 1.28 0.74 0.48 0.44 0.50 0.35 0.35 0.30 0.33 0.41 0.51 0.60 0.63 0.57 0.52 0.59 0.61 0.64 0.69 0.75 0.89 1.00 1.14 1.33 1.48 1.44 1.39 1.36 1.41 1.44 1.43 1.38 1.32 1.33 1.35 1.40 1.44 1.39 1.34 1.40 1.45 1.38 1.30 1.30 1.26
0.81 1.10 1.38 1.44 1.09 0.88 0.61 0.60 0.60 0.52 0.51 0.44 0.40 0.44 0.52 0.59 0.64 0.59 0.51 0.51 0.57 0.61 0.71 0.75 0.81 0.94 1.05 1.15 1.33 1.41 1.39 1.37 1.40 1.42 1.38 1.39 1.35 1.32 1.30 1.30 1.38 1.46 1.42 1.37 1.44 1.41 1.34 1.34 1.27
0.70 0.95 1.19 1.46 1.06 0.67 0.64 0.63 0.47 0.44 0.47 0.43 0.40 0.39 0.44 0.52 0.57 0.57 0.49 0.47 0.53 0.63 0.69 0.78 0.82 0.84 0.93 1.04 1.17 1.30 1.35 1.35 1.38 1.36 1.36 1.40 1.40 1.35 1.27 1.24 1.31 1.39 1.42 1.39 1.40 1.38 1.33 1.32 1.30

GEFSSGP_prec_meanprecacc_282.txt.gz
Total_Precipitation_Accumulation
0.22 0.26 0.33 0.38 0.31 0.19 0.06 0.01 0.00 0.01 0.01 0.02 0.02 0.01 0.01 0.02 0.03 0.04 0.03 0.02 0.04 0.07 0.12 0.25 0.36 0.42 0.47 0.50 0.51 0.51 0.53 0.55 0.60 0.63 0.66 0.71 0.72 0.76 0.82 0.85 0.84 0.84 0.90 0.93 0.96 0.94 0.91 0.88 0.80
0.22 0.33 0.42 0.47 0.29 0.12 0.04 0.01 0.01 0.01 0.02 0.03 0.02 0.01 0.01 0.02 0.02 0.03 0.03 0.03 0.03 0.05 0.11 0.20 0.35 0.44 0.49 0.51 0.52 0.52 0.54 0.57 0.62 0.66 0.69 0.73 0.75 0.77 0.83 0.84 0.85 0.85 0.88 0.97 0.96 0.93 0.93 0.90 0.87
0.34 0.46 0.49 0.48 0.29 0.08 0.02 0.00 0.00 0.02 0.02 0.03 0.02 0.02 0.02 0.03 0.03 0.04 0.03 0.04 0.04 0.06 0.10 0.21 0.36 0.47 0.55 0.57 0.56 0.56 0.60 0.63 0.68 0.70 0.75 0.79 0.82 0.84 0.86 0.82 0.81 0.80 0.78 0.82 0.84 0.87 0.94 0.93 0.89
0.50 0.65 0.60 0.45 0.20 0.07 0.02 0.01 0.01 0.02 0.02 0.02 0.01 0.02 0.03 0.03 0.03 0.04 0.04 0.04 0.07 0.10 0.15 0.25 0.40 0.53 0.62 0.64 0.62 0.61 0.66 0.72 0.76 0.81 0.84 0.88 0.95 0.95 0.92 0.86 0.86 0.80 0.75 0.77 0.79 0.85 0.93 0.91 0.84
0.64 0.73 0.63 0.39 0.13 0.04 0.02 0.01 0.01 0.02 0.02 0.02 0.01 0.02 0.03 0.03 0.03 0.05 0.07 0.08 0.10 0.15 0.23 0.31 0.47 0.62 0.70 0.74 0.73 0.70 0.75 0.79 0.83 0.86 0.91 0.96 1.00 1.00 0.95 0.91 0.88 0.87 0.84 0.82 0.83 0.87 0.95 0.90 0.82
0.76 0.77 0.55 0.27 0.09 0.03 0.02 0.01 0.02 0.02 0.02 0.02 0.02 0.03 0.04 0.05 0.05 0.07 0.09 0.10 0.11 0.18 0.27 0.40 0.63 0.72 0.77 0.85 0.86 0.83 0.87 0.91 0.93 0.95 1.01 1.05 1.05 1.05 1.04 0.97 0.90 0.91 0.92 0.88 0.88 0.91 0.95 0.88 0.81
0.80 0.68 0.41 0.18 0.07 0.04 0.03 0.03 0.03 0.03 0.03 0.02 0.02 0.04 0.05 0.08 0.09 0.11 0.13 0.15 0.21 0.28 0.39 0.49 0.68 0.81 0.90 1.00 1.03 1.00 1.01 1.04 1.03 1.06 1.10 1.14 1.13 1.11 1.09 1.05 0.96 0.95 0.95 0.99 0.95 0.91 0.88 0.84 0.78
0.81 0.75 0.40 0.21 0.11 0.07 0.05 0.05 0.04 0.04 0.03 0.04 0.04 0.05 0.06 0.09 0.10 0.15 0.20 0.27 0.34 0.41 0.49 0.60 0.73 0.86 0.96 1.09 1.19 1.22 1.22 1.22 1.25 1.24 1.16 1.16 1.24 1.27 1.24 1.14 1.06 1.03 1.00 1.03 1.05 0.97 0.87 0.81 0.77
0.90 0.91 0.47 0.21 0.14 0.10 0.08 0.08 0.05 0.04 0.05 0.07 0.06 0.05 0.07 0.10 0.14 0.23 0.32 0.42 0.50 0.57 0.63 0.76 0.84 0.92 1.02 1.11 1.21 1.41 1.51 1.51 1.47 1.45 1.33 1.34 1.35 1.31 1.26 1.15 1.10 1.04 1.04 1.02 1.08 1.11 1.00 0.89 0.82
1.00 0.78 0.38 0.18 0.16 0.13 0.12 0.11 0.09 0.09 0.10 0.10 0.09 0.08 0.12 0.16 0.22 0.28 0.33 0.41 0.52 0.57 0.69 0.83 0.99 1.06 1.18 1.23 1.31 1.47 1.59 1.63 1.56 1.34 1.36 1.45 1.33 1.28 1.21 1.22 1.24 1.14 1.12 1.09 1.08 1.12 1.08 0.99 0.83
0.83 0.55 0.28 0.19 0.17 0.18 0.18 0.16 0.13 0.14 0.13 0.11 0.11 0.11 0.16 0.22 0.28 0.34 0.37 0.43 0.53 0.60 0.72 0.87 1.09 1.25 1.35 1.34 1.33 1.40 1.50 1.58 1.58 1.39 1.24 1.30 1.36 1.37 1.37 1.28 1.31 1.30 1.25 1.26 1.20 1.15 1.04 0.93 0.88
0.61 0.40 0.29 0.26 0.22 0.24 0.24 0.21 0.17 0.13 0.11 0.12 0.15 0.15 0.17 0.25 0.31 0.37 0.40 0.43 0.54 0.67 0.79 0.95 1.11 1.31 1.45 1.50 1.45 1.43 1.44 1.49 1.52 1.49 1.42 1.34 1.34 1.27 1.20 1.19 1.12 1.13 1.10 1.13 1.15 1.05 0.96 0.89 0.84
0.48 0.35 0.29 0.28 0.29 0.29 0.30 0.28 0.21 0.12 0.10 0.15 0.19 0.20 0.21 0.24 0.32 0.43 0.49 0.50 0.56 0.67 0.82 1.05 1.20 1.33 1.51 1.63 1.61 1.60 1.56 1.42 1.50 1.58 1.64 1.52 1.35 1.25 1.21 1.16 1.13 1.06 1.02 1.01 1.01 0.94 0.88 0.83 0.79
0.39 0.35 0.30 0.27 0.29 0.32 0.37 0.36 0.30 0.16 0.14 0.22 0.24 0.25 0.26 0.26 0.34 0.46 0.57 0.59 0.58 0.66 0.83 1.11 1.30 1.37 1.55 1.63 1.62 1.63 1.68 1.56 1.59 1.64 1.61 1.67 1.58 1.38 1.35 1.31 1.19 1.11 1.04 0.99 0.98 0.95 0.90 0.85 0.79
0.42 0.49 0.40 0.30 0.28 0.31 0.42 0.48 0.34 0.20 0.21 0.29 0.30 0.30 0.33 0.33 0.37 0.45 0.59 0.65 0.64 0.70 0.86 1.12 1.34 1.49 1.59 1.59 1.61 1.67 1.72 1.71 1.65 1.64 1.63 1.69 1.67 1.61 1.50 1.46 1.37 1.22 1.14 1.12 1.08 1.07 1.01 0.97 0.88
0.65 0.79 0.67 0.37 0.30 0.35 0.53 0.52 0.26 0.22 0.28 0.31 0.36 0.34 0.37 0.36 0.37 0.45 0.62 0.77 0.78 0.83 0.89 1.06 1.33 1.49 1.61 1.63 1.63 1.64 1.72 1.74 1.72 1.72 1.69 1.69 1.75 1.75 1.75 1.63 1.53 1.36 1.32 1.29 1.24 1.17 1.13 1.04 0.97
0.97 0.92 0.64 0.41 0.35 0.43 0.57 0.44 0.23 0.24 0.33 0.36 0.41 0.39 0.40 0.44 0.42 0.46 0.58 0.76 0.84 0.86 0.95 1.10 1.30 1.44 1.55 1.73 1.78 1.71 1.73 1.79 1.82 1.80 1.78 1.67 1.72 1.82 1.90 1.91 1.78 1.64 1.55 1.45 1.35 1.24 1.17 1.12 1.05
0.84 0.66 0.50 0.41 0.39 0.44 0.50 0.39 0.26 0.25 0.33 0.38 0.44 0.44 0.40 0.47 0.43 0.46 0.56 0.72 0.87 0.91 1.00 1.13 1.28 1.45 1.57 1.81 1.96 1.99 1.87 1.86 1.85 1.81 1.73 1.72 1.72 1.74 1.78 1.87 1.94 1.91 1.85 1.72 1.56 1.44 1.27 1.16 1.11
0.53 0.60 0.51 0.35 0.33 0.44 0.45 0.36 0.26 0.25 0.31 0.39 0.43 0.47 0.42 0.45 0.48 0.52 0.60 0.69 0.88 0.97 1.01 1.14 1.20 1.39 1.57 1.74 1.91 1.95 1.91 1.85 1.82 1.72 1.67 1.61 1.66 1.69 1.72 1.67 1.77 1.84 1.83 1.77 1.69 1.61 1.54 1.40 1.27
0.62 0.70 0.55 0.38 0.32 0.49 0.49 0.39 0.28 0.26 0.31 0.40 0.40 0.47 0.49 0.49 0.54 0.58 0.65 0.72 0.89 1.01 1.00 1.11 1.23 1.35 1.41 1.53 1.68 1.79 1.86 1.89 1.87 1.75 1.75 1.65 1.59 1.60 1.69 1.72 1.65 1.64 1.66 1.67 1.63 1.59 1.56 1.52 1.39
0.72 0.63 0.51 0.47 0.44 0.54 0.62 0.57 0.35 0.29 0.27 0.36 0.40 0.46 0.56 0.60 0.61 0.63 0.67 0.74 0.89 1.03 1.06 1.08 1.21 1.34 1.41 1.54 1.72 1.84 2.04 2.08 2.13 1.94 1.77 1.68 1.61 1.54 1.55 1.65 1.67 1.61 1.57 1.57 1.55 1.48 1.42 1.42 1.33
0.77 0.44 0.44 0.51 0.78 0.89 0.77 0.89 0.44 0.31 0.29 0.36 0.42 0.45 0.57 0.61 0.62 0.69 0.69 0.77 0.88 0.97 1.10 1.14 1.25 1.38 1.42 1.59 1.76 1.75 1.89 1.93 1.90 1.78 1.70 1.62 1.60 1.57 1.49 1.49 1.55 1.59 1.54 1.47 1.45 1.47 1.42 1.43 1.41
0.63 0.40 0.51 0.64 0.88 1.05 0.78 0.88 0.50 0.28 0.35 0.36 0.40 0.43 0.53 0.62 0.59 0.67 0.70 0.70 0.80 0.90 1.05 1.16 1.30 1.43 1.49 1.54 1.71 1.76 1.70 1.72 1.79 1.84 1.77 1.68 1.63 1.58 1.51 1.48 1.47 1.48 1.48 1.40 1.37 1.43 1.46 1.47 1.43
0.59 0.69 0.84 0.96 1.40 1.67 0.70 0.67 0.55 0.47 0.55 0.44 0.39 0.44 0.54 0.60 0.63 0.66 0.65 0.64 0.75 0.90 1.03 1.16 1.27 1.38 1.49 1.52 1.62 1.78 1.72 1.65 1.69 1.81 1.85 1.79 1.71 1.63 1.52 1.42 1.40 1.37 1.34 1.33 1.30 1.31 1.32 1.37 1.39
0.95 1.44 2.12 2.27 2.26 1.38 0.38 0.51 0.62 0.51 0.49 0.53 0.51 0.49 0.53 0.58 0.64 0.69 0.60 0.63 0.69 0.81 0.97 1.11 1.27 1.31 1.36 1.44 1.53 1.60 1.72 1.68 1.60 1.58 1.64 1.78 1.77 1.65 1.56 1.48 1.37 1.32 1.27 1.24 1.24 1.27 1.28 1.24 1.27
1.04 1.29 1.73 1.71 1.17 0.53 0.31 0.51 0.56 0.41 0.36 0.36 0.39 0.47 0.50 0.54 0.57 0.62 0.60 0.63 0.66 0.71 0.83 0.99 1.11 1.28 1.39 1.43 1.48 1.52 1.59 1.70 1.61 1.53 1.47 1.56 1.63 1.52 1.45 1.49 1.42 1.32 1.28 1.27 1.25 1.23 1.24 1.27 1.23
0.92 1.01 0.88 1.17 0.84 0.58 0.49 0.46 0.38 0.20 0.20 0.24 0.30 0.40 0.51 0.58 0.59 0.56 0.59 0.64 0.63 0.70 0.76 0.90 1.00 1.16 1.36 1.48 1.49 1.50 1.52 1.59 1.60 1.52 1.49 1.48 1.49 1.48 1.46 1.47 1.47 1.39 1.38 1.41 1.40 1.36 1.28 1.28 1.29
0.73 0.90 1.11 1.55 1.30 0.75 0.49 0.47 0.53 0.38 0.37 0.32 0.34 0.41 0.52 0.61 0.65 0.60 0.56 0.63 0.65 0.69 0.74 0.80 0.96 1.07 1.22 1.41 1.56 1.54 1.49 1.47 1.54 1.56 1.54 1.51 1.48 1.48 1.47 1.49 1.51 1.45 1.38 1.45 1.50 1.44 1.36 1.37 1.34
0.82 1.11 1.39 1.45 1.11 0.90 0.63 0.62 0.63 0.55 0.54 0.47 0.43 0.47 0.54 0.62 0.69 0.63 0.55 0.55 0.62 0.68 0.78 0.82 0.91 1.02 1.14 1.23 1.41 1.52 1.50 1.48 1.51 1.54 1.48 1.49 1.48 1.48 1.43 1.40 1.44 1.50 1.46 1.40 1.48 1.45 1.39 1.40 1.34
0.70 0.96 1.21 1.48 1.08 0.69 0.66 0.65 0.49 0.46 0.50 0.46 0.44 0.44 0.49 0.57 0.62 0.62 0.54 0.52 0.58 0.69 0.78 0.87 0.92 0.92 1.01 1.11 1.24 1.39 1.47 1.47 1.48 1.46 1.47 1.51 1.50 1.48 1.39 1.34 1.37 1.43 1.45 1.42 1.43 1.42 1.37 1.37 1.35

GEFSSGP_prec_meanprecacc_288.txt.gz
Total_Precipitation_Accumulation
0.22 0.26 0.34 0.39 0.32 0.20 0.07 0.01 0.00 0.01 0.01 0.03 0.02 0.01 0.01 0.02 0.03 0.04 0.03 0.02 0.04 0.07 0.13 0.26 0.37 0.44 0.48 0.52 0.52 0.52 0.54 0.56 0.61 0.64 0.68 0.72 0.74 0.79 0.88 0.90 0.89 0.89 0.94 0.97 1.01 0.98 0.95 0.92 0.85
0.22 0.33 0.44 0.49 0.29 0.13 0.04 0.01 0.01 0.01 0.02 0.03 0.02 0.01 0.01 0.02 0.02 0.03 0.03 0.03 0.03 0.05 0.11 0.22 0.36 0.45 0.51 0.53 0.54 0.53 0.55 0.58 0.63 0.67 0.70 0.74 0.77 0.80 0.87 0.90 0.91 0.90 0.91 1.00 1.00 0.98 0.98 0.96 0.93
0.34 0.47 0.51 0.50 0.29 0.08 0.02 0.01 0.01 0.02 0.03 0.03 0.02 0.02 0.02 0.03 0.03 0.04 0.03 0.04 0.05 0.06 0.11 0.22 0.38 0.49 0.58 0.60 0.58 0.58 0.61 0.65 0.69 0.72 0.77 0.81 0.84 0.85 0.89 0.87 0.86 0.84 0.81 0.85 0.87 0.91 0.98 0.99 0.94
0.51 0.66 0.62 0.47 0.21 0.07 0.02 0.01 0.01 0.02 0.03 0.03 0.01 0.02 0.03 0.03 0.03 0.04 0.04 0.05 0.07 0.10 0.15 0.26 0.42 0.55 0.64 0.67 0.64 0.64 0.68 0.73 0.78 0.83 0.86 0.90 0.97 0.96 0.94 0.90 0.89 0.82 0.78 0.81 0.84 0.89 0.97 0.96 0.89
0.65 0.75 0.65 0.41 0.14 0.05 0.02 0.01 0.02 0.02 0.02 0.03 0.02 0.02 0.03 0.03 0.03 0.05 0.07 0.08 0.10 0.16 0.24 0.34 0.50 0.65 0.73 0.77 0.75 0.73 0.78 0.81 0.85 0.88 0.93 0.98 1.02 1.02 0.97 0.93 0.90 0.88 0.86 0.85 0.86 0.91 0.99 0.94 0.87
0.78 0.79 0.56 0.28 0.09 0.03 0.02 0.01 0.02 0.03 0.03 0.02 0.03 0.03 0.04 0.05 0.05 0.08 0.09 0.10 0.12 0.19 0.30 0.44 0.67 0.76 0.81 0.88 0.89 0.85 0.89 0.93 0.95 0.98 1.04 1.08 1.08 1.07 1.07 0.98 0.91 0.92 0.93 0.89 0.90 0.94 0.98 0.92 0.86
0.82 0.70 0.41 0.19 0.08 0.04 0.04 0.03 0.03 0.04 0.04 0.03 0.03 0.04 0.05 0.08 0.09 0.11 0.13 0.16 0.21 0.30 0.42 0.53 0.71 0.84 0.94 1.04 1.07 1.03 1.04 1.07 1.05 1.08 1.13 1.18 1.17 1.14 1.11 1.06 0.97 0.96 0.96 1.01 0.97 0.93 0.90 0.87 0.83
0.83 0.76 0.41 0.21 0.12 0.08 0.05 0.05 0.05 0.04 0.04 0.05 0.05 0.06 0.07 0.09 0.10 0.16 0.21 0.28 0.35 0.43 0.52 0.64 0.75 0.88 0.99 1.12 1.21 1.25 1.25 1.25 1.27 1.26 1.18 1.19 1.29 1.31 1.26 1.15 1.08 1.04 1.02 1.04 1.06 0.99 0.89 0.84 0.82
0.93 0.93 0.47 0.21 0.14 0.10 0.08 0.09 0.05 0.05 0.06 0.08 0.07 0.06 0.08 0.11 0.15 0.24 0.33 0.44 0.52 0.59 0.66 0.80 0.88 0.96 1.04 1.14 1.24 1.44 1.55 1.55 1.50 1.47 1.35 1.36 1.38 1.35 1.30 1.19 1.13 1.06 1.06 1.04 1.10 1.13 1.03 0.92 0.85
1.03 0.79 0.38 0.19 0.16 0.14 0.12 0.12 0.09 0.10 0.11 0.11 0.10 0.09 0.13 0.19 0.24 0.29 0.35 0.43 0.54 0.59 0.72 0.86 1.03 1.09 1.21 1.26 1.34 1.50 1.62 1.67 1.59 1.36 1.37 1.47 1.36 1.32 1.26 1.26 1.27 1.17 1.14 1.11 1.10 1.14 1.11 1.02 0.86
0.85 0.56 0.29 0.20 0.17 0.19 0.18 0.16 0.13 0.14 0.14 0.12 0.13 0.13 0.18 0.25 0.30 0.36 0.39 0.44 0.54 0.62 0.75 0.91 1.12 1.28 1.38 1.38 1.36 1.43 1.53 1.62 1.62 1.42 1.26 1.33 1.39 1.41 1.42 1.31 1.35 1.34 1.27 1.28 1.22 1.19 1.07 0.96 0.90
0.62 0.41 0.30 0.26 0.22 0.24 0.24 0.21 0.18 0.13 0.12 0.14 0.17 0.17 0.20 0.29 0.34 0.39 0.43 0.46 0.56 0.69 0.82 0.98 1.15 1.34 1.48 1.53 1.49 1.47 1.49 1.53 1.55 1.52 1.44 1.37 1.38 1.32 1.25 1.22 1.15 1.16 1.13 1.15 1.17 1.07 0.99 0.92 0.86
0.49 0.36 0.29 0.28 0.29 0.29 0.30 0.28 0.21 0.13 0.10 0.16 0.22 0.23 0.24 0.28 0.37 0.48 0.53 0.54 0.58 0.70 0.85 1.09 1.25 1.38 1.56 1.68 1.66 1.65 1.61 1.46 1.53 1.61 1.66 1.55 1.40 1.31 1.25 1.19 1.16 1.09 1.06 1.05 1.04 0.97 0.90 0.86 0.81
0.41 0.36 0.31 0.28 0.30 0.33 0.38 0.37 0.31 0.17 0.14 0.23 0.27 0.28 0.30 0.30 0.39 0.52 0.62 0.63 0.61 0.70 0.87 1.15 1.36 1.43 1.61 1.69 1.67 1.69 1.75 1.62 1.64 1.68 1.64 1.71 1.64 1.44 1.39 1.35 1.23 1.15 1.08 1.03 1.02 0.98 0.93 0.87 0.81
0.43 0.50 0.42 0.31 0.29 0.32 0.43 0.50 0.35 0.21 0.21 0.30 0.33 0.35 0.37 0.37 0.42 0.52 0.65 0.71 0.67 0.74 0.91 1.17 1.39 1.54 1.64 1.64 1.69 1.74 1.79 1.81 1.74 1.72 1.70 1.74 1.73 1.67 1.54 1.51 1.42 1.27 1.19 1.16 1.12 1.10 1.04 1.00 0.90
0.67 0.81 0.69 0.38 0.31 0.36 0.54 0.54 0.27 0.22 0.28 0.31 0.38 0.38 0.41 0.40 0.41 0.50 0.69 0.85 0.83 0.87 0.93 1.11 1.38 1.54 1.66 1.68 1.68 1.71 1.82 1.87 1.88 1.89 1.84 1.78 1.82 1.82 1.80 1.68 1.58 1.40 1.37 1.33 1.29 1.21 1.17 1.07 0.99
1.00 0.95 0.66 0.42 0.35 0.44 0.58 0.46 0.24 0.24 0.33 0.37 0.43 0.44 0.44 0.46 0.44 0.49 0.63 0.83 0.90 0.91 1.00 1.15 1.34 1.48 1.61 1.78 1.83 1.76 1.80 1.90 1.98 1.98 1.98 1.84 1.84 1.91 1.97 1.97 1.83 1.68 1.59 1.48 1.38 1.27 1.20 1.15 1.08
0.87 0.68 0.51 0.42 0.39 0.44 0.51 0.40 0.27 0.25 0.34 0.39 0.45 0.47 0.44 0.50 0.45 0.47 0.59 0.77 0.91 0.95 1.05 1.17 1.32 1.49 1.63 1.88 2.03 2.06 1.94 1.95 1.97 1.94 1.86 1.86 1.86 1.87 1.89 1.97 2.03 1.98 1.89 1.76 1.59 1.47 1.30 1.19 1.15
0.55 0.62 0.52 0.36 0.34 0.45 0.46 0.37 0.27 0.26 0.32 0.40 0.43 0.49 0.45 0.49 0.52 0.54 0.62 0.71 0.91 0.99 1.03 1.16 1.22 1.42 1.60 1.78 1.95 1.99 1.97 1.94 1.94 1.87 1.78 1.71 1.75 1.78 1.82 1.78 1.88 1.93 1.90 1.81 1.72 1.63 1.57 1.43 1.31
0.64 0.72 0.57 0.39 0.33 0.50 0.50 0.40 0.29 0.27 0.32 0.40 0.40 0.47 0.50 0.51 0.56 0.61 0.67 0.74 0.91 1.04 1.03 1.13 1.25 1.36 1.43 1.56 1.72 1.83 1.90 1.96 1.97 1.89 1.91 1.77 1.69 1.67 1.76 1.80 1.76 1.75 1.76 1.75 1.68 1.63 1.60 1.55 1.43
0.75 0.65 0.53 0.48 0.45 0.55 0.62 0.58 0.35 0.30 0.28 0.36 0.41 0.47 0.58 0.61 0.62 0.65 0.70 0.77 0.91 1.05 1.09 1.10 1.22 1.36 1.42 1.56 1.76 1.90 2.08 2.13 2.20 2.03 1.88 1.81 1.73 1.62 1.61 1.73 1.77 1.72 1.68 1.66 1.62 1.54 1.48 1.47 1.38
0.80 0.45 0.46 0.53 0.80 0.90 0.78 0.90 0.45 0.32 0.30 0.36 0.43 0.47 0.59 0.63 0.63 0.70 0.71 0.78 0.90 0.99 1.11 1.15 1.27 1.39 1.44 1.61 1.79 1.80 1.95 1.99 1.95 1.84 1.77 1.70 1.69 1.65 1.56 1.56 1.63 1.69 1.63 1.55 1.54 1.55 1.49 1.49 1.47
0.65 0.42 0.53 0.65 0.90 1.06 0.80 0.89 0.50 0.29 0.36 0.37 0.41 0.45 0.55 0.63 0.61 0.68 0.71 0.71 0.81 0.92 1.06 1.16 1.30 1.44 1.51 1.57 1.74 1.80 1.75 1.79 1.87 1.91 1.85 1.76 1.70 1.64 1.57 1.53 1.54 1.56 1.55 1.47 1.44 1.49 1.52 1.53 1.50
0.60 0.71 0.86 0.99 1.41 1.69 0.71 0.69 0.56 0.48 0.57 0.46 0.40 0.45 0.56 0.63 0.65 0.68 0.67 0.65 0.77 0.91 1.04 1.16 1.28 1.39 1.51 1.55 1.65 1.82 1.78 1.72 1.78 1.91 1.96 1.88 1.79 1.70 1.57 1.46 1.46 1.44 1.41 1.39 1.36 1.37 1.37 1.41 1.44
0.97 1.46 2.17 2.31 2.29 1.40 0.40 0.53 0.64 0.52 0.51 0.56 0.53 0.52 0.56 0.60 0.66 0.70 0.61 0.64 0.70 0.82 0.98 1.12 1.28 1.32 1.38 1.46 1.56 1.65 1.78 1.75 1.69 1.69 1.75 1.88 1.86 1.73 1.63 1.54 1.42 1.38 1.33 1.29 1.29 1.32 1.32 1.28 1.32
1.05 1.31 1.75 1.73 1.18 0.54 0.32 0.53 0.57 0.42 0.37 0.38 0.40 0.49 0.52 0.56 0.60 0.64 0.61 0.63 0.66 0.71 0.84 1.00 1.13 1.29 1.40 1.45 1.50 1.55 1.65 1.78 1.69 1.64 1.56 1.65 1.71 1.59 1.51 1.56 1.48 1.39 1.35 1.33 1.31 1.28 1.28 1.31 1.26
0.93 1.02 0.89 1.19 0.85 0.59 0.50 0.47 0.38 0.21 0.21 0.25 0.30 0.41 0.53 0.61 0.64 0.60 0.61 0.65 0.64 0.71 0.77 0.91 1.01 1.17 1.37 1.50 1.51 1.54 1.58 1.66 1.68 1.64 1.60 1.58 1.58 1.56 1.54 1.55 1.55 1.48 1.48 1.50 1.48 1.42 1.32 1.31 1.32
0.74 0.91 1.13 1.57 1.32 0.76 0.49 0.47 0.54 0.39 0.38 0.33 0.35 0.43 0.53 0.63 0.70 0.67 0.62 0.68 0.68 0.71 0.75 0.81 0.97 1.08 1.23 1.43 1.59 1.58 1.53 1.52 1.62 1.68 1.69 1.65 1.60 1.58 1.56 1.57 1.59 1.55 1.48 1.54 1.58 1.52 1.42 1.41 1.37
0.82 1.12 1.40 1.47 1.12 0.91 0.64 0.63 0.66 0.57 0.56 0.48 0.44 0.48 0.56 0.64 0.71 0.66 0.59 0.59 0.65 0.70 0.80 0.84 0.92 1.04 1.15 1.25 1.43 1.54 1.53 1.52 1.58 1.65 1.62 1.64 1.62 1.60 1.54 1.48 1.52 1.59 1.56 1.50 1.55 1.53 1.47 1.45 1.37
0.71 0.97 1.22 1.50 1.09 0.71 0.67 0.66 0.51 0.48 0.52 0.47 0.45 0.45 0.49 0.58 0.64 0.64 0.57 0.56 0.62 0.72 0.80 0.90 0.95 0.94 1.03 1.14 1.26 1.40 1.50 1.51 1.54 1.54 1.58 1.63 1.63 1.59 1.51 1.46 1.46 1.50 1.53 1.50 1.50 1.49 1.46 1.45 1.40

GEFSSGP_prec_meanprecacc_294.txt.gz
Total_Precipitation_Accumulation
0.22 0.26 0.34 0.40 0.34 0.21 0.07 0.01 0.00 0.01 0.01 0.03 0.02 0.01 0.01 0.02 0.03 0.04 0.03 0.02 0.04 0.07 0.13 0.27 0.39 0.48 0.53 0.56 0.55 0.54 0.56 0.57 0.62 0.65 0.69 0.73 0.76 0.81 0.90 0.94 0.92 0.91 0.96 1.00 1.04 1.04 1.01 0.96 0.89
0.22 0.33 0.44 0.50 0.30 0.13 0.04 0.01 0.01 0.01 0.02 0.03 0.02 0.01 0.01 0.02 0.02 0.03 0.03 0.03 0.03 0.06 0.11 0.22 0.38 0.49 0.56 0.58 0.57 0.56 0.57 0.60 0.65 0.68 0.72 0.76 0.79 0.82 0.88 0.93 0.95 0.93 0.94 1.02 1.02 1.01 1.02 1.00 0.96
0.34 0.47 0.51 0.51 0.30 0.09 0.02 0.01 0.01 0.02 0.03 0.03 0.02 0.02 0.02 0.03 0.03 0.04 0.03 0.04 0.05 0.07 0.11 0.23 0.40 0.52 0.61 0.63 0.61 0.61 0.64 0.68 0.72 0.75 0.79 0.83 0.87 0.88 0.90 0.90 0.89 0.87 0.84 0.87 0.89 0.94 1.03 1.03 0.97
0.51 0.67 0.63 0.48 0.21 0.08 0.02 0.01 0.01 0.02 0.03 0.03 0.01 0.02 0.03 0.03 0.03 0.04 0.04 0.05 0.08 0.11 0.16 0.27 0.44 0.59 0.68 0.71 0.68 0.67 0.72 0.77 0.82 0.86 0.89 0.93 1.00 0.99 0.97 0.93 0.93 0.85 0.81 0.84 0.86 0.92 1.01 1.01 0.94
0.66 0.76 0.66 0.42 0.14 0.05 0.02 0.01 0.02 0.02 0.02 0.03 0.02 0.03 0.03 0.03 0.03 0.05 0.07 0.09 0.11 0.17 0.25 0.35 0.53 0.70 0.78 0.81 0.78 0.76 0.81 0.85 0.89 0.92 0.96 1.01 1.05 1.05 1.00 0.96 0.92 0.91 0.89 0.87 0.88 0.93 1.01 0.96 0.90
0.80 0.81 0.58 0.30 0.10 0.03 0.02 0.01 0.02 0.03 0.03 0.03 0.03 0.04 0.04 0.05 0.06 0.08 0.09 0.10 0.13 0.20 0.31 0.45 0.71 0.81 0.85 0.93 0.93 0.89 0.93 0.98 1.00 1.02 1.07 1.11 1.11 1.10 1.10 1.01 0.93 0.95 0.96 0.91 0.91 0.96 1.00 0.94 0.88
0.83 0.72 0.43 0.20 0.09 0.05 0.04 0.03 0.03 0.04 0.04 0.03 0.03 0.04 0.06 0.08 0.09 0.11 0.13 0.16 0.22 0.31 0.43 0.55 0.75 0.87 0.98 1.08 1.11 1.06 1.08 1.11 1.10 1.13 1.17 1.21 1.19 1.18 1.15 1.09 0.99 0.98 0.98 1.03 0.99 0.94 0.92 0.89 0.85
0.85 0.79 0.43 0.23 0.14 0.09 0.06 0.06 0.05 0.04 0.04 0.05 0.06 0.07 0.07 0.10 0.11 0.16 0.21 0.28 0.36 0.43 0.53 0.66 0.79 0.91 1.02 1.15 1.24 1.28 1.28 1.29 1.33 1.31 1.22 1.22 1.32 1.35 1.30 1.17 1.10 1.06 1.04 1.06 1.08 1.01 0.90 0.85 0.84
0.95 0.95 0.49 0.23 0.16 0.12 0.09 0.09 0.06 0.05 0.06 0.08 0.08 0.06 0.09 0.12 0.16 0.25 0.34 0.44 0.52 0.60 0.67 0.82 0.92 1.00 1.08 1.16 1.26 1.47 1.59 1.60 1.57 1.53 1.39 1.39 1.42 1.40 1.34 1.21 1.15 1.08 1.08 1.05 1.12 1.14 1.05 0.94 0.87
1.05 0.81 0.40 0.20 0.18 0.16 0.13 0.12 0.09 0.10 0.12 0.11 0.11 0.10 0.14 0.21 0.26 0.30 0.35 0.43 0.54 0.60 0.73 0.88 1.06 1.14 1.26 1.29 1.37 1.54 1.66 1.72 1.67 1.44 1.43 1.51 1.39 1.37 1.30 1.29 1.30 1.20 1.16 1.13 1.12 1.16 1.13 1.04 0.89
0.87 0.57 0.30 0.22 0.19 0.21 0.20 0.17 0.13 0.15 0.15 0.13 0.13 0.14 0.20 0.28 0.32 0.37 0.40 0.45 0.55 0.62 0.75 0.92 1.15 1.33 1.43 1.41 1.39 1.46 1.56 1.66 1.68 1.48 1.32 1.38 1.43 1.46 1.47 1.35 1.38 1.37 1.30 1.29 1.23 1.20 1.09 0.98 0.92
0.65 0.42 0.31 0.28 0.24 0.27 0.27 0.22 0.19 0.15 0.13 0.15 0.18 0.18 0.23 0.32 0.37 0.41 0.43 0.46 0.56 0.69 0.82 0.99 1.18 1.39 1.52 1.57 1.51 1.49 1.52 1.57 1.60 1.56 1.49 1.42 1.43 1.38 1.30 1.25 1.18 1.18 1.15 1.17 1.18 1.08 1.00 0.93 0.87
0.51 0.38 0.31 0.30 0.31 0.32 0.33 0.29 0.22 0.14 0.11 0.17 0.23 0.24 0.27 0.32 0.42 0.50 0.53 0.54 0.59 0.71 0.86 1.10 1.27 1.42 1.60 1.72 1.69 1.67 1.63 1.49 1.57 1.65 1.71 1.60 1.45 1.37 1.31 1.23 1.18 1.11 1.07 1.06 1.05 0.97 0.91 0.87 0.83
0.42 0.39 0.33 0.29 0.31 0.35 0.40 0.38 0.31 0.18 0.15 0.24 0.29 0.30 0.33 0.35 0.46 0.58 0.64 0.64 0.61 0.71 0.88 1.17 1.38 1.48 1.65 1.73 1.70 1.71 1.77 1.65 1.68 1.71 1.68 1.75 1.69 1.50 1.46 1.39 1.25 1.17 1.10 1.05 1.03 0.99 0.94 0.89 0.83
0.45 0.53 0.44 0.33 0.31 0.35 0.45 0.51 0.36 0.21 0.22 0.31 0.36 0.37 0.40 0.41 0.49 0.61 0.70 0.72 0.68 0.75 0.92 1.19 1.42 1.59 1.69 1.68 1.71 1.77 1.82 1.84 1.78 1.76 1.74 1.79 1.77 1.71 1.61 1.56 1.44 1.28 1.21 1.19 1.14 1.11 1.05 1.01 0.92
0.69 0.85 0.71 0.41 0.33 0.39 0.57 0.55 0.28 0.23 0.30 0.33 0.41 0.41 0.44 0.43 0.47 0.61 0.77 0.89 0.84 0.88 0.94 1.13 1.41 1.57 1.70 1.72 1.71 1.74 1.85 1.91 1.93 1.94 1.89 1.83 1.88 1.88 1.87 1.73 1.61 1.42 1.39 1.35 1.31 1.22 1.18 1.08 1.01
1.03 0.98 0.68 0.44 0.37 0.46 0.61 0.48 0.25 0.25 0.34 0.38 0.45 0.46 0.47 0.49 0.48 0.58 0.77 0.93 0.95 0.93 1.02 1.17 1.36 1.51 1.65 1.82 1.86 1.79 1.83 1.95 2.03 2.03 2.05 1.92 1.93 2.00 2.06 2.06 1.89 1.72 1.62 1.51 1.41 1.29 1.22 1.17 1.10
0.89 0.70 0.53 0.43 0.41 0.46 0.54 0.41 0.28 0.26 0.35 0.40 0.47 0.50 0.46 0.53 0.50 0.53 0.69 0.92 1.00 1.01 1.09 1.20 1.35 1.52 1.66 1.92 2.06 2.09 1.97 1.99 2.03 2.00 1.94 1.95 1.94 1.98 2.00 2.07 2.13 2.04 1.93 1.79 1.62 1.50 1.33 1.21 1.16
0.56 0.63 0.54 0.37 0.35 0.47 0.48 0.39 0.28 0.26 0.33 0.41 0.45 0.50 0.47 0.51 0.55 0.58 0.67 0.83 1.02 1.06 1.08 1.22 1.28 1.47 1.66 1.82 1.99 2.03 2.02 1.98 1.99 1.92 1.86 1.80 1.84 1.87 1.92 1.88 2.00 2.05 1.97 1.86 1.76 1.67 1.60 1.46 1.33
0.66 0.74 0.58 0.40 0.34 0.52 0.52 0.42 0.30 0.27 0.32 0.41 0.41 0.48 0.51 0.52 0.58 0.65 0.72 0.81 1.02 1.10 1.06 1.17 1.31 1.43 1.50 1.61 1.75 1.86 1.95 2.01 2.02 1.95 1.97 1.84 1.76 1.75 1.85 1.88 1.84 1.86 1.86 1.83 1.75 1.69 1.64 1.60 1.47
0.76 0.66 0.54 0.50 0.47 0.57 0.65 0.61 0.37 0.31 0.29 0.37 0.42 0.47 0.58 0.61 0.63 0.67 0.73 0.82 0.99 1.13 1.13 1.13 1.26 1.42 1.50 1.63 1.80 1.93 2.11 2.17 2.24 2.07 1.94 1.88 1.80 1.69 1.69 1.80 1.84 1.80 1.77 1.75 1.70 1.62 1.54 1.53 1.43
0.81 0.46 0.47 0.54 0.82 0.93 0.80 0.93 0.46 0.33 0.31 0.37 0.44 0.47 0.60 0.64 0.64 0.70 0.72 0.80 0.94 1.05 1.17 1.19 1.30 1.43 1.49 1.68 1.85 1.84 1.98 2.01 1.98 1.88 1.81 1.76 1.76 1.72 1.63 1.62 1.70 1.75 1.72 1.63 1.60 1.61 1.55 1.56 1.54
0.67 0.43 0.54 0.67 0.92 1.09 0.81 0.91 0.52 0.29 0.36 0.38 0.42 0.46 0.56 0.64 0.61 0.69 0.72 0.71 0.82 0.94 1.09 1.19 1.33 1.47 1.54 1.61 1.79 1.84 1.79 1.83 1.90 1.95 1.89 1.81 1.76 1.70 1.63 1.60 1.60 1.61 1.61 1.53 1.51 1.56 1.59 1.59 1.55
0.63 0.73 0.89 1.02 1.45 1.71 0.73 0.70 0.57 0.49 0.57 0.47 0.41 0.46 0.58 0.64 0.66 0.68 0.67 0.66 0.77 0.91 1.05 1.18 1.29 1.40 1.53 1.57 1.67 1.85 1.80 1.75 1.82 1.95 2.00 1.94 1.85 1.76 1.62 1.53 1.52 1.50 1.46 1.45 1.43 1.44 1.43 1.47 1.50
0.99 1.49 2.21 2.36 2.33 1.42 0.41 0.54 0.65 0.53 0.51 0.57 0.55 0.54 0.58 0.61 0.66 0.71 0.61 0.64 0.70 0.82 0.98 1.12 1.28 1.33 1.39 1.47 1.57 1.66 1.80 1.77 1.72 1.72 1.79 1.94 1.92 1.79 1.68 1.60 1.49 1.44 1.39 1.35 1.35 1.39 1.39 1.34 1.37
1.08 1.34 1.79 1.76 1.20 0.55 0.33 0.54 0.59 0.43 0.38 0.38 0.41 0.50 0.53 0.57 0.61 0.65 0.62 0.64 0.67 0.72 0.84 1.00 1.13 1.29 1.41 1.45 1.51 1.56 1.66 1.79 1.71 1.66 1.59 1.70 1.77 1.65 1.56 1.62 1.54 1.44 1.42 1.42 1.38 1.36 1.36 1.38 1.32
0.96 1.05 0.91 1.22 0.87 0.60 0.51 0.48 0.39 0.21 0.21 0.25 0.31 0.42 0.54 0.62 0.66 0.62 0.62 0.66 0.65 0.71 0.78 0.92 1.01 1.17 1.37 1.50 1.52 1.54 1.59 1.68 1.70 1.65 1.62 1.62 1.62 1.63 1.59 1.60 1.59 1.52 1.53 1.56 1.56 1.51 1.39 1.36 1.36
0.75 0.93 1.14 1.60 1.34 0.77 0.50 0.48 0.56 0.39 0.38 0.33 0.36 0.43 0.55 0.65 0.73 0.69 0.64 0.70 0.69 0.72 0.76 0.82 0.97 1.08 1.23 1.43 1.59 1.58 1.55 1.54 1.64 1.70 1.71 1.68 1.64 1.64 1.63 1.63 1.63 1.58 1.52 1.58 1.64 1.58 1.47 1.45 1.40
0.83 1.13 1.42 1.49 1.14 0.93 0.64 0.64 0.68 0.59 0.57 0.49 0.45 0.49 0.57 0.66 0.74 0.69 0.63 0.64 0.68 0.72 0.81 0.84 0.93 1.04 1.15 1.26 1.44 1.56 1.55 1.54 1.60 1.66 1.63 1.66 1.66 1.65 1.60 1.55 1.57 1.63 1.60 1.54 1.60 1.57 1.51 1.50 1.42
0.71 0.98 1.23 1.52 1.11 0.72 0.68 0.67 0.53 0.49 0.52 0.48 0.46 0.46 0.50 0.60 0.65 0.66 0.60 0.61 0.68 0.76 0.84 0.92 0.96 0.95 1.04 1.15 1.28 1.43 1.52 1.53 1.55 1.55 1.59 1.66 1.67 1.64 1.57 1.52 1.52 1.56 1.57 1.54 1.54 1.53 1.49 1.48 1.45

GEFSSGP_prec_meanprecacc_300.txt.gz
Total_Precipitation_Accumulation
0.22 0.26 0.34 0.40 0.34 0.22 0.07 0.01 0.00 0.01 0.01 0.03 0.02 0.01 0.01 0.02 0.03 0.04 0.03 0.02 0.04 0.07 0.13 0.27 0.39 0.48 0.54 0.58 0.58 0.57 0.58 0.59 0.64 0.67 0.70 0.75 0.78 0.83 0.92 0.96 0.94 0.93 0.98 1.01 1.06 1.06 1.04 1.00 0.92
0.22 0.33 0.44 0.50 0.31 0.13 0.04 0.01 0.01 0.01 0.02 0.03 0.02 0.01 0.01 0.02 0.02 0.03 0.03 0.03 0.04 0.06 0.11 0.22 0.38 0.49 0.57 0.60 0.60 0.59 0.60 0.62 0.67 0.71 0.75 0.78 0.81 0.84 0.91 0.96 0.99 0.95 0.96 1.04 1.04 1.04 1.06 1.04 1.00
0.34 0.47 0.52 0.52 0.30 0.09 0.02 0.01 0.01 0.02 0.03 0.03 0.02 0.02 0.02 0.03 0.03 0.04 0.04 0.04 0.05 0.08 0.12 0.23 0.40 0.52 0.63 0.65 0.64 0.65 0.68 0.71 0.76 0.78 0.82 0.86 0.89 0.91 0.94 0.93 0.93 0.90 0.86 0.89 0.91 0.96 1.05 1.07 1.01
0.52 0.67 0.63 0.49 0.22 0.08 0.02 0.01 0.01 0.02 0.03 0.03 0.01 0.02 0.03 0.03 0.03 0.05 0.04 0.05 0.08 0.12 0.17 0.28 0.45 0.60 0.70 0.73 0.70 0.70 0.76 0.80 0.85 0.90 0.93 0.97 1.04 1.03 1.01 0.96 0.95 0.88 0.84 0.85 0.88 0.93 1.03 1.03 0.97
0.66 0.77 0.67 0.42 0.15 0.05 0.02 0.01 0.02 0.02 0.02 0.03 0.02 0.03 0.03 0.03 0.03 0.05 0.08 0.09 0.11 0.17 0.26 0.35 0.54 0.71 0.79 0.83 0.81 0.80 0.86 0.90 0.94 0.97 1.02 1.06 1.10 1.09 1.04 0.99 0.95 0.94 0.91 0.88 0.90 0.95 1.03 0.99 0.91
0.80 0.82 0.59 0.30 0.10 0.03 0.02 0.01 0.02 0.03 0.03 0.03 0.03 0.04 0.05 0.05 0.06 0.08 0.10 0.11 0.13 0.20 0.31 0.46 0.71 0.82 0.87 0.95 0.97 0.93 0.97 1.03 1.05 1.08 1.14 1.17 1.15 1.14 1.14 1.05 0.96 0.98 0.98 0.93 0.92 0.97 1.01 0.95 0.89
0.84 0.72 0.44 0.21 0.09 0.05 0.04 0.03 0.03 0.04 0.04 0.03 0.03 0.05 0.06 0.08 0.09 0.12 0.13 0.16 0.23 0.32 0.44 0.55 0.76 0.89 0.99 1.10 1.14 1.10 1.12 1.16 1.16 1.21 1.24 1.27 1.25 1.22 1.20 1.13 1.03 1.01 1.00 1.05 1.01 0.96 0.93 0.90 0.86
0.86 0.79 0.43 0.23 0.14 0.09 0.06 0.06 0.05 0.05 0.05 0.06 0.06 0.07 0.07 0.10 0.11 0.17 0.21 0.29 0.36 0.44 0.54 0.67 0.80 0.93 1.04 1.17 1.26 1.30 1.31 1.33 1.38 1.38 1.30 1.28 1.37 1.40 1.34 1.21 1.13 1.08 1.05 1.08 1.10 1.02 0.92 0.87 0.85
0.96 0.96 0.49 0.23 0.17 0.12 0.09 0.10 0.06 0.05 0.07 0.09 0.08 0.07 0.09 0.12 0.17 0.25 0.35 0.45 0.53 0.60 0.68 0.83 0.93 1.02 1.10 1.19 1.28 1.49 1.62 1.64 1.61 1.59 1.46 1.46 1.47 1.45 1.38 1.24 1.18 1.10 1.10 1.07 1.13 1.15 1.06 0.95 0.88
1.06 0.81 0.40 0.20 0.18 0.16 0.13 0.13 0.10 0.10 0.12 0.12 0.12 0.10 0.15 0.21 0.26 0.31 0.36 0.44 0.55 0.61 0.74 0.90 1.08 1.16 1.29 1.32 1.41 1.58 1.69 1.77 1.72 1.48 1.49 1.56 1.46 1.43 1.35 1.33 1.34 1.23 1.19 1.16 1.13 1.17 1.14 1.05 0.90
0.87 0.57 0.30 0.22 0.20 0.22 0.20 0.17 0.14 0.15 0.15 0.14 0.15 0.15 0.20 0.29 0.33 0.37 0.41 0.46 0.56 0.64 0.77 0.93 1.17 1.36 1.45 1.43 1.41 1.49 1.59 1.70 1.74 1.52 1.38 1.43 1.49 1.52 1.53 1.42 1.44 1.41 1.33 1.33 1.25 1.21 1.10 0.99 0.93
0.66 0.43 0.31 0.28 0.25 0.28 0.27 0.23 0.20 0.16 0.13 0.16 0.19 0.19 0.24 0.33 0.38 0.42 0.45 0.48 0.59 0.73 0.84 1.00 1.19 1.41 1.54 1.59 1.54 1.51 1.53 1.59 1.64 1.61 1.54 1.46 1.47 1.43 1.36 1.33 1.25 1.23 1.18 1.19 1.19 1.08 1.01 0.94 0.88
0.53 0.39 0.31 0.30 0.32 0.33 0.34 0.30 0.24 0.15 0.12 0.18 0.24 0.26 0.28 0.33 0.43 0.52 0.55 0.56 0.61 0.74 0.89 1.12 1.29 1.45 1.63 1.75 1.73 1.69 1.64 1.50 1.59 1.70 1.77 1.64 1.49 1.41 1.35 1.28 1.24 1.18 1.12 1.10 1.07 0.99 0.92 0.88 0.84
0.45 0.41 0.34 0.30 0.32 0.37 0.42 0.39 0.32 0.20 0.16 0.25 0.30 0.32 0.35 0.36 0.48 0.59 0.66 0.66 0.64 0.73 0.90 1.19 1.40 1.51 1.69 1.77 1.75 1.74 1.78 1.65 1.69 1.75 1.72 1.79 1.72 1.54 1.51 1.45 1.31 1.23 1.14 1.09 1.07 1.02 0.95 0.90 0.84
0.48 0.56 0.46 0.35 0.33 0.37 0.47 0.53 0.37 0.23 0.24 0.32 0.36 0.39 0.42 0.43 0.51 0.62 0.71 0.75 0.71 0.77 0.94 1.21 1.44 1.62 1.74 1.74 1.79 1.81 1.85 1.85 1.79 1.79 1.78 1.83 1.80 1.75 1.66 1.63 1.51 1.35 1.27 1.23 1.18 1.16 1.09 1.03 0.93
0.72 0.89 0.75 0.43 0.35 0.41 0.59 0.58 0.30 0.25 0.32 0.33 0.41 0.42 0.45 0.44 0.49 0.63 0.79 0.91 0.87 0.91 0.98 1.16 1.43 1.61 1.75 1.81 1.81 1.78 1.88 1.92 1.94 1.95 1.91 1.86 1.91 1.91 1.90 1.78 1.66 1.47 1.45 1.41 1.35 1.27 1.23 1.12 1.02
1.06 1.01 0.71 0.47 0.39 0.47 0.63 0.50 0.27 0.27 0.37 0.40 0.46 0.47 0.48 0.51 0.50 0.59 0.78 0.95 0.97 0.97 1.06 1.20 1.39 1.54 1.69 1.91 1.97 1.85 1.87 1.97 2.05 2.05 2.08 1.95 1.96 2.03 2.07 2.08 1.93 1.75 1.66 1.55 1.44 1.33 1.26 1.20 1.11
0.91 0.72 0.54 0.46 0.43 0.48 0.55 0.43 0.29 0.28 0.37 0.43 0.48 0.51 0.48 0.54 0.51 0.54 0.71 0.95 1.03 1.05 1.13 1.25 1.39 1.56 1.70 1.98 2.14 2.16 2.02 2.03 2.06 2.03 1.98 1.99 1.98 2.01 2.03 2.09 2.14 2.08 1.98 1.83 1.66 1.52 1.35 1.24 1.19
0.58 0.65 0.55 0.38 0.36 0.49 0.50 0.40 0.29 0.28 0.35 0.43 0.47 0.52 0.48 0.52 0.56 0.59 0.69 0.86 1.06 1.10 1.14 1.28 1.34 1.51 1.70 1.87 2.03 2.07 2.06 2.01 2.02 1.96 1.91 1.85 1.87 1.90 1.95 1.90 2.02 2.06 2.00 1.89 1.81 1.71 1.63 1.49 1.36
0.68 0.76 0.60 0.42 0.35 0.53 0.54 0.44 0.31 0.29 0.34 0.43 0.43 0.49 0.53 0.53 0.59 0.66 0.73 0.84 1.07 1.15 1.12 1.23 1.37 1.48 1.55 1.65 1.78 1.88 1.97 2.03 2.04 1.97 2.00 1.90 1.81 1.79 1.88 1.90 1.85 1.87 1.88 1.86 1.79 1.73 1.68 1.62 1.50
0.77 0.68 0.56 0.51 0.48 0.58 0.66 0.62 0.38 0.32 0.30 0.38 0.43 0.49 0.60 0.63 0.64 0.67 0.75 0.84 1.05 1.20 1.20 1.19 1.31 1.47 1.54 1.67 1.85 1.97 2.14 2.19 2.26 2.08 1.97 1.93 1.88 1.76 1.73 1.83 1.86 1.81 1.79 1.77 1.73 1.65 1.59 1.57 1.46
0.82 0.47 0.48 0.55 0.84 0.94 0.81 0.95 0.47 0.34 0.32 0.38 0.45 0.48 0.61 0.65 0.64 0.71 0.73 0.82 0.98 1.10 1.22 1.26 1.38 1.49 1.53 1.71 1.91 1.91 2.04 2.05 2.00 1.90 1.83 1.79 1.82 1.79 1.69 1.68 1.74 1.78 1.73 1.65 1.63 1.64 1.59 1.61 1.60
0.68 0.43 0.55 0.68 0.94 1.11 0.83 0.92 0.53 0.30 0.37 0.39 0.44 0.48 0.57 0.65 0.62 0.69 0.72 0.72 0.84 0.97 1.13 1.23 1.39 1.55 1.58 1.63 1.83 1.90 1.86 1.90 1.96 1.99 1.92 1.84 1.81 1.76 1.70 1.67 1.66 1.65 1.64 1.56 1.54 1.59 1.62 1.63 1.60
0.64 0.74 0.91 1.04 1.48 1.75 0.74 0.72 0.59 0.49 0.58 0.47 0.43 0.49 0.58 0.65 0.66 0.68 0.67 0.66 0.78 0.93 1.08 1.20 1.32 1.45 1.58 1.60 1.71 1.89 1.86 1.82 1.90 2.03 2.07 1.99 1.89 1.81 1.68 1.58 1.59 1.56 1.50 1.48 1.46 1.47 1.47 1.51 1.54
1.02 1.52 2.25 2.40 2.37 1.44 0.41 0.55 0.67 0.53 0.52 0.57 0.55 0.56 0.59 0.62 0.67 0.72 0.62 0.64 0.70 0.83 1.00 1.15 1.30 1.36 1.42 1.50 1.59 1.69 1.83 1.81 1.78 1.80 1.87 2.01 1.98 1.84 1.72 1.64 1.54 1.50 1.44 1.39 1.39 1.43 1.43 1.38 1.41
1.11 1.38 1.84 1.81 1.23 0.57 0.34 0.56 0.60 0.44 0.38 0.39 0.42 0.51 0.55 0.58 0.62 0.66 0.63 0.64 0.67 0.72 0.85 1.02 1.15 1.31 1.43 1.47 1.52 1.58 1.68 1.82 1.75 1.72 1.66 1.76 1.84 1.71 1.60 1.66 1.58 1.49 1.47 1.46 1.43 1.41 1.41 1.42 1.36
0.99 1.09 0.96 1.28 0.91 0.63 0.53 0.49 0.40 0.21 0.22 0.26 0.32 0.43 0.56 0.64 0.66 0.63 0.63 0.67 0.66 0.72 0.78 0.93 1.03 1.18 1.39 1.52 1.53 1.56 1.61 1.69 1.72 1.67 1.66 1.66 1.67 1.67 1.64 1.64 1.63 1.56 1.57 1.61 1.61 1.56 1.45 1.42 1.41
0.77 0.96 1.18 1.65 1.39 0.80 0.51 0.49 0.57 0.40 0.39 0.34 0.36 0.45 0.57 0.67 0.74 0.71 0.66 0.71 0.71 0.72 0.77 0.83 0.98 1.09 1.24 1.45 1.60 1.60 1.56 1.55 1.65 1.70 1.72 1.70 1.66 1.67 1.68 1.68 1.68 1.62 1.55 1.62 1.68 1.63 1.54 1.52 1.47
0.85 1.15 1.45 1.53 1.17 0.95 0.66 0.66 0.69 0.59 0.57 0.50 0.46 0.50 0.59 0.68 0.75 0.70 0.64 0.65 0.70 0.73 0.82 0.85 0.94 1.05 1.16 1.27 1.45 1.56 1.55 1.54 1.60 1.66 1.64 1.67 1.67 1.67 1.64 1.59 1.63 1.68 1.64 1.57 1.63 1.60 1.55 1.56 1.49
0.72 1.00 1.26 1.56 1.15 0.74 0.70 0.68 0.53 0.50 0.53 0.48 0.46 0.47 0.51 0.60 0.66 0.67 0.61 0.62 0.70 0.79 0.85 0.93 0.97 0.96 1.05 1.16 1.28 1.43 1.53 1.54 1.56 1.55 1.60 1.66 1.67 1.66 1.59 1.55 1.56 1.60 1.62 1.58 1.58 1.56 1.52 1.52 1.49